This demonstration page uses our WeatherBlox Daily Observations layout. Learn more.

Left ArrowRight Arrow

34.74481, -87.66753

Hourly Observations for September 30, 2021

Temp ( °F °C ) Dew Point ( °F °C ) Humidity (%) Winds ( mph kmh ) Pressure ( in mb ) Visibility ( mi km ) Precip ( " mm )
12:53 am 00:53 Mostly Clear 72 22.2 68 20 87 87 Calm 30.03 1017 10 16 0.00 0.00
1:53 am 01:53 Clear 72 22.2 67 19.4 84 84 Calm 30.03 1017 8 13 0.00 0.00
2:53 am 02:53 Partly Cloudy with Mist and Fog 70 21.1 66 18.9 87 87 Calm 30.03 1017 6 10 0.00 0.00
3:53 am 03:53 Clear with Mist and Fog 70 21.1 66 18.9 87 87 Calm 30.03 1017 6 10 0.00 0.00
4:16 am 04:16 Clear with Mist and Fog 70 21.1 66 18.9 87 87 Calm 30.05 1017 3 4 0.00 0.00
4:24 am 04:24 Clear with Mist and Fog 70 21.1 66 18.9 87 87 Calm 30.05 1017 5 8 0.00 0.00
4:33 am 04:33 Clear with Mist and Fog 70 21.1 66 18.9 87 87 Calm 30.05 1017 2 3 0.00 0.00
4:50 am 04:50 Clear with Mist and Fog 70 21 64 18 83 83 Calm 30.05 1017 3 5 0.00 0.00
4:53 am 04:53 Clear with Mist and Fog 69 20.6 65 18.3 87 87 Calm 30.04 1017 3 5 0.00 0.00
4:58 am 04:58 Clear with Mist and Fog 69 20.6 66 18.9 90 90 Calm 30.05 1017 2 3 0.00 0.00
5:49 am 05:49 Clear with Mist and Fog 70 21 66 19 88 88 Calm 30.06 1018 3 5 0.00 0.00
5:53 am 05:53 Clear with Mist and Fog 69 20.6 66 18.9 90 90 Calm 30.05 1018 3 5 0.00 0.00
6:00 am 06:00 Clear with Mist and Fog 69 20.6 65 18.3 87 87 Calm 30.06 1018 3 4 0.00 0.00
6:22 am 06:22 Partly Cloudy with Mist and Fog 69 20.6 66 18.9 90 90 Calm 30.07 1018 4 6 0.00 0.00
6:53 am 06:53 Cloudy with Mist and Fog 70 21.1 66 18.9 87 87 Calm 30.07 1018 6 10 0.00 0.00
7:53 am 07:53 Mostly Cloudy with Mist and Fog 72 22.2 68 20 87 87 E 5 7 30.08 1019 6 10 0.00 0.00
8:53 am 08:53 Sunny 73 22.8 68 20 84 84 Calm 30.09 1019 9 14 0.00 0.00
9:53 am 09:53 Sunny 74 23.3 67 19.4 79 79 SSE 3 6 30.10 1019 10 16 0.00 0.00
10:53 am 10:53 Mostly Cloudy 78 25.6 67 19.4 69 69 Calm 30.10 1019 10 16 0.00 0.00
11:53 am 11:53 Partly Cloudy 80 26.7 68 20 67 67 E 3 6 30.10 1019 10 16 0.00 0.00
12:53 pm 12:53 Mostly Sunny 82 27.8 68 20 63 63 Calm 30.09 1019 10 16 0.00 0.00
1:46 pm 13:46 Partly Cloudy with Nearby Thunderstorms 84 28.9 69 20.6 61 61 SSW 5 7 30.06 1018 9 14 0.00 0.00
1:53 pm 13:53 Mostly Cloudy with Nearby Thunderstorms 83 28.3 68 20 61 61 SSW 6 9 30.07 1018 10 16 0.00 0.00
2:01 pm 14:01 Mostly Cloudy 83 28.3 69 20.6 63 63 SW 10 17 30.06 1018 10 16 0.00 0.00
2:12 pm 14:12 Cloudy with Nearby Thunderstorms 82 27.8 69 20.6 65 65 WSW 10 17 30.06 1018 10 16 0.00 0.00
2:27 pm 14:27 Mostly Cloudy 80 26.7 69 20.6 69 69 SSW 18 30 30.07 1018 10 16 0.00 0.00
2:49 pm 14:49 Mostly Cloudy with Thunderstorms 73 23 66 19 78 78 SSW 8 13 30.08 1019 6 10 0.02 0.51
2:53 pm 14:53 Cloudy with Thunderstorms 73 22.8 67 19.4 81 81 SSE 10 17 30.07 1018 8 13 0.02 0.51
3:04 pm 15:04 Cloudy with Light Rain 73 22.8 67 19.4 81 81 S 6 9 30.08 1019 5 8 0.01 0.25
3:53 pm 15:53 Cloudy with Light Rain 74 23.3 68 20 82 82 NW 5 7 30.07 1018 10 16 0.02 0.51
4:53 pm 16:53 Mostly Cloudy 74 23.3 68 20 82 82 Calm 30.07 1018 10 16 0.03 0.76
5:53 pm 17:53 Sunny 75 23.9 69 20.6 82 82 Calm 30.08 1019 10 16 0.00 0.00
6:53 pm 18:53 Clear 73 22.8 69 20.6 87 87 Calm 30.08 1019 8 13 0.00 0.00
7:53 pm 19:53 Clear with Mist and Fog 73 22.8 70 21.1 90 90 W 3 6 30.09 1019 6 10 0.00 0.00
8:53 pm 20:53 Partly Cloudy with Mist and Fog 73 22.8 69 20.6 87 87 Calm 30.11 1020 5 8 0.00 0.00
9:53 pm 21:53 Clear with Mist and Fog 73 22.8 69 20.6 87 87 Calm 30.11 1020 5 8 0.00 0.00
10:18 pm 22:18 Clear with Mist and Fog 72 22.2 68 20 87 87 Calm 30.11 1020 3 4 0.00 0.00
10:26 pm 22:26 Mostly Clear with Mist and Fog 72 22.2 68 20 87 87 Calm 30.11 1020 4 6 0.00 0.00
10:53 pm 22:53 Mostly Clear with Mist and Fog 72 22.2 69 20.6 91 91 Calm 30.11 1020 4 6 0.00 0.00
11:07 pm 23:07 Mostly Clear with Mist and Fog 71 21.7 68 20 90 90 Calm 30.11 1020 2 3 0.00 0.00
11:19 pm 23:19 Partly Cloudy with Mist and Fog 71 21.7 68 20 90 90 Calm 30.11 1020 1 1 0.00 0.00
11:24 pm 23:24 Partly Cloudy with Mist and Fog 71 21.7 68 20 90 90 Calm 30.11 1020 2 3 0.00 0.00
11:39 pm 23:39 Cloudy with Mist and Fog 72 22.2 68 20 87 87 Calm 30.11 1020 2 3 0.00 0.00
11:42 pm 23:42 Cloudy with Mist and Fog 72 22.2 68 20 87 87 Calm 30.11 1020 3 5 0.00 0.00
11:53 pm 23:53 Cloudy with Mist and Fog 71 21.7 68 20 90 90 Calm 30.11 1020 3 4 0.00 0.00
11:59 pm 23:59 Cloudy with Mist and Fog 71 21.7 67 19.4 87 87 SSE 3 6 30.11 1020 1 1 0.00 0.00

Powered by AerisWeather